Weather Roundup
Issued by NWS Springfield, MO

Home | Current Version | Previous Version | Text Only | Print | Product List | Glossary On
Versions: 1 2 3 4 5 6 7 8 9 10 11 12 13 14 15 16 17 18 19 20 21 22 23 24 25 26 27 28 29 30 31 32 33 34 35 36 37 38 39 40 41 42 43 44 45 46 47 48 49 50
000
NZUS99 KSGF 011507
HRRSGF

HOURLY WEATHER
NATIONAL WEATHER SERVICE SPRINGFIELD MO
900 AM CST SUN MAR 01 2015

......SGF CWA......

CITY           SKY/WX    TMP DP  RH WIND       PRES   REMARKS
SPRINGFIELD    FOG       28  26  92 NW8       30.35R VSB 1   WCI  20
JOPLIN         CLOUDY    27  25  92 CALM      30.38S FOG
WEST PLAINS    CLOUDY    31  29  92 CALM      30.34R
ROLLA          CLOUDY    26  24  92 W6        30.35R FOG     WCI  19
OSAGE BEACH    CLOUDY    27  25  93 CALM      30.36F
BRANSON        FOG       30  28  93 CALM      30.37R VSB 1/4

......SURROUNDING SGF CWA......

CITY           SKY/WX    TMP DP  RH WIND       PRES   REMARKS
CHANUTE        CLOUDY    25  21  85 N5        30.39R WCI  19
PARSONS        CLOUDY    27  23  85 NE5       30.40S WCI  22
COFFEYVILLE    CLOUDY    27  24  89 N5        30.40R FOG     WCI  22
EMPORIA        MOSUNNY   23  19  85 N5        30.37R WCI  17
GROVE OK       CLOUDY    32  32 100 CALM      30.40S FOG
ROGERS AR      MIX PCPN  29  28  96 N3        30.35S FOG
SILOAM SPRINGS CLOUDY    30  25  80 CALM      30.36S
HARRISON AR    CLOUDY    31  30  96 NW6       30.35R FOG     WCI  25
NEAR YELLVILLE CLOUDY    30  27  86 CALM      30.37R

......KANSAS AND MISSOURI......

CITY           SKY/WX    TMP DP  RH WIND       PRES   REMARKS
KANSAS CTY INT PTSUNNY   24  20  84 NW6       30.39R WCI  17
DOWNTOWN KC    CLOUDY    26  20  77 N5        30.40R WCI  20
COLUMBIA       CLOUDY    26  23  88 NW5       30.37R WCI  20
SEDALIA        LGT SNOW  24  21  88 NW5       30.39S FOG     WCI  18
ST JOSEPH      MOSUNNY   22  19  89 NW6       30.41R WCI  14
ST LOUIS       FRZ DRZL  29  25  85 W5        30.38S FOG     WCI  24
SPIRIT OF STL  LGT SNOW  27  25  92 NW3       30.38S VSB 3/4
KIRKSVILLE     LGT SNOW  22  19  89 CALM      30.38R FOG
WICHITA        CLOUDY    25  21  85 W3        30.39R FOG
TOPEKA         CLOUDY    23  19  85 NW5       30.41R WCI  17
OLATHE         CLOUDY    24  20  84 N3        30.37R

......TENNESSEE......

CITY           SKY/WX    TMP DP  RH WIND       PRES   REMARKS
MEMPHIS        RAIN      36  33  89 NE3       30.39R FOG
NASHVILLE      CLOUDY    50  38  63 S8        30.38S

......ARKANSAS.......

CITY           SKY/WX    TMP DP  RH WIND       PRES   REMARKS
FAYETTEVILLE   CLOUDY    31  31 100 CALM      30.35R FOG
FT SMITH       FOG       33  31  92 CALM      30.38R VSB 1
LITTLE ROCK    LGT RAIN  34  30  86 E3        30.39R FOG

......OKLAHOMA.......

CITY           SKY/WX    TMP DP  RH WIND       PRES   REMARKS
TULSA          CLOUDY    29  27  92 N8        30.40R FOG     WCI  21
PONCA CITY     CLOUDY    26  23  88 N5        30.39R FOG     WCI  20
MCALESTER      CLOUDY    32  31  96 NE5       30.38R FOG     WCI  27
OKLAHOMA CITY  FRZ DRZL  29  26  89 N8        30.35R FOG     WCI  21

......IOWA............

CITY           SKY/WX    TMP DP  RH WIND       PRES   REMARKS
DES MOINES     MOSUNNY   24  15  68 W7        30.37R WCI  16
QUAD CITIES    PTSUNNY   15  13  91 CALM      30.38S FOG

......ILLINOIS........

CITY           SKY/WX    TMP DP  RH WIND       PRES   REMARKS
QUINCY         SNOW      22  19  89 CALM      30.39R VSB 1/2
CHICAGO        CLOUDY    19  17  92 CALM      30.36F FOG




USA.gov is the U.S. government's official web portal to all federal, state and local government web resources and services.